TimeMST,TemperatureF,Dew PointF,Humidity,Sea Level PressureIn,VisibilityMPH,Wind Direction,Wind SpeedMPH,Gust SpeedMPH,PrecipitationIn,Events,Conditions,WindDirDegrees,DateUTC
12:54 AM,39.0,34.0,82,30.03,10.0,WSW,5.8,-,N/A,,Clear,240,2012-11-04 06:54:00
1:54 AM,39.9,35.1,83,30.02,10.0,Calm,Calm,-,N/A,,Clear,0,2012-11-04 07:54:00
1:54 AM,44.1,36.0,73,30.03,10.0,WSW,11.5,-,N/A,,Clear,240,2012-11-04 08:54:00
2:54 AM,46.0,34.0,63,30.04,10.0,Calm,Calm,-,N/A,,Mostly Cloudy,0,2012-11-04 09:54:00
3:54 AM,42.1,35.1,76,30.06,10.0,SW,8.1,-,N/A,,Mostly Cloudy,220,2012-11-04 10:54:00
4:54 AM,46.0,36.0,68,30.08,10.0,West,18.4,-,N/A,,Mostly Cloudy,270,2012-11-04 11:54:00
5:54 AM,46.9,36.0,66,30.09,10.0,WSW,20.7,-,N/A,,Overcast,250,2012-11-04 12:54:00
6:54 AM,46.0,37.0,71,30.12,10.0,West,10.4,-,0.00,Rain,Light Rain,280,2012-11-04 13:54:00
7:54 AM,46.0,37.9,73,30.17,10.0,NNW,8.1,-,0.00,Rain,Light Rain,330,2012-11-04 14:54:00
8:54 AM,46.9,39.0,74,30.20,10.0,NW,4.6,-,0.00,,Overcast,310,2012-11-04 15:54:00
9:54 AM,46.9,39.9,77,30.22,10.0,WSW,5.8,-,N/A,,Overcast,250,2012-11-04 16:54:00
10:54 AM,48.0,39.0,71,30.24,10.0,NW,10.4,16.1,0.01,Rain,Light Rain,320,2012-11-04 17:54:00
11:54 AM,50.0,37.9,63,30.25,10.0,NW,12.7,18.4,0.00,,Overcast,310,2012-11-04 18:54:00
12:54 PM,51.1,37.9,61,30.25,10.0,NW,8.1,-,0.00,,Overcast,320,2012-11-04 19:54:00
1:54 PM,51.1,36.0,56,30.24,10.0,NW,4.6,-,N/A,,Overcast,320,2012-11-04 20:54:00
2:54 PM,53.1,36.0,52,30.21,10.0,NW,5.8,-,N/A,,Mostly Cloudy,310,2012-11-04 21:54:00
3:54 PM,53.1,35.1,50,30.23,10.0,NNW,3.5,-,N/A,,Clear,340,2012-11-04 22:54:00
4:54 PM,46.0,36.0,68,30.24,10.0,Calm,Calm,-,N/A,,Clear,0,2012-11-04 23:54:00
5:54 PM,39.9,35.1,83,30.26,10.0,South,6.9,-,N/A,,Clear,180,2012-11-05 00:54:00
6:54 PM,37.9,34.0,86,30.28,10.0,ESE,5.8,-,N/A,,Partly Cloudy,120,2012-11-05 01:54:00
7:54 PM,39.0,35.1,86,30.27,10.0,SSE,5.8,-,N/A,,Mostly Cloudy,150,2012-11-05 02:54:00
8:54 PM,37.9,34.0,86,30.25,10.0,Calm,Calm,-,N/A,,Clear,0,2012-11-05 03:54:00
9:54 PM,39.0,35.1,86,30.22,10.0,Calm,Calm,-,N/A,,Clear,0,2012-11-05 04:54:00
10:54 PM,44.1,37.0,76,30.19,10.0,SSW,5.8,-,N/A,,Clear,210,2012-11-05 05:54:00